Weather in Cunnamulla

Australia     28°04′03″S   145°41′02″E
temp.,
°C
wind,
m/s
gust,
m/s
humid.,
%
clouds,
%
prec.,
mm/h
press.,
hPa
HPBL,
m
15 april, thu
thu1501:00+21e33185 0.0 101511
04:00+19ene12225 0.0 101411
07:00+20s332151 0.0 101613
10:00+26sse321573 0.0 1016540
13:00+30sw12115 0.0 10141676
16:00+31ssw541196 0.0 10122174
19:00+25sse691737 0.0 1015330
22:00+23sse592635 0.0 1016165
16 april, fri
fri1601:00+23sse61032100 0.0 1016400
04:00+20sse8133498 0.0 1016405
07:00+18se8124399 0.0 1019453
10:00+22ese893338 0.0 1019810
13:00+26se662742 0.0 10171482
16:00+24s1082999 0.0 10161174
19:00+18sse9124599 0.0 1019475
22:00+16sse8116299 0.0 1020391
17 april, sat
sat1701:00+15s6977100 0.1 1020411
04:00+14sse71084100 2.1 1021486
07:00+13ese7986100 2.4 1022440
10:00+16se577214 3.8 1023682
13:00+21sse57420 0.0 10201555
16:00+23s67310 0.0 10182140
19:00+20s59320 0.0 1020182
22:00+18s510290 0.0 1021185
18 april, sun
sun1801:00+15s511310 0.0 1020194
04:00+14s47360 0.0 1019116
07:00+13sse45470 0.0 102193
10:00+19sse56440 0.0 10211040
13:00+22sse55250 0.0 10191620
16:00+23s55210 0.0 10171722
19:00+19sse45240 0.0 101860
22:00+17sse45290 0.0 101966
19 april, mon
mon1901:00+16sse44320 0.0 101945
04:00+14se33340 0.0 101825
07:00+14ese33380 0.0 101915
10:00+20e33250 0.0 1019696
13:00+23se21190 0.0 10171484
16:00+24s21170 0.0 10151726
19:00+21sse44234 0.0 101641
22:00+19ese44263 0.0 101736